Wind_Speed
21 22 22 22 22 22 24 24 23 24 24 25 25 27 28 28 26 25 26 26 27 26 25 26 25 21 7 9 17 10 7 5 11 17 22 18 20 19 20 18 15 12 10 4 4 8 9
22 22 22 23 23 24 26 25 24 25 24 25 25 26 28 29 28 29 27 29 28 27 25 25 22 9 7 18 10 6 7 11 14 20 23 21 17 18 18 21 17 12 12 9 4 10 10
20 21 22 22 25 25 28 28 27 27 27 26 27 28 30 31 31 29 30 30 31 29 25 20 13 5 12 19 5 7 12 12 13 18 18 25 24 18 19 18 17 13 10 13 10 9 11
21 21 21 22 23 23 25 27 26 27 28 29 28 30 32 33 33 32 33 31 29 25 16 8 4 7 9 9 10 15 14 15 14 16 20 17 23 21 20 18 21 19 17 16 14 14 12
22 22 22 22 22 24 25 26 27 29 32 31 30 29 33 33 33 36 37 29 22 12 3 7 5 8 12 9 11 15 17 17 16 15 16 13 14 21 16 17 16 16 17 20 13 16 14
24 24 23 23 24 25 24 25 29 30 33 33 32 31 34 33 33 39 34 15 12 0 1 5 10 7 11 14 13 10 10 15 14 13 12 16 13 18 19 18 17 19 21 20 18 17 13
23 24 24 24 25 27 27 28 30 30 34 34 34 33 34 37 37 35 21 6 5 7 15 13 7 11 4 8 8 12 12 14 17 16 17 19 17 23 26 25 23 22 20 19 16 24 19
22 24 24 25 27 30 29 30 31 32 34 34 35 35 36 38 37 14 9 8 7 8 13 19 26 27 27 18 13 19 16 15 18 19 20 16 24 24 24 25 24 27 23 18 12 17 21
23 24 25 26 28 30 29 30 31 32 33 34 35 36 38 39 22 5 15 11 3 14 9 17 25 23 24 22 24 21 23 22 19 23 23 24 22 25 26 26 26 25 24 20 17 25 22
22 22 23 24 28 30 30 32 31 32 32 34 36 37 39 41 11 18 7 2 9 12 7 13 11 9 13 13 16 22 22 27 23 24 24 25 21 25 28 28 26 24 24 25 20 12 13
24 23 23 23 26 28 29 30 30 31 32 33 36 39 39 30 19 10 8 8 10 7 7 10 12 18 19 16 12 17 22 26 26 22 18 25 26 25 30 30 29 26 24 24 23 17 20
26 26 25 24 24 25 28 28 29 31 32 33 36 38 41 17 14 16 15 12 9 7 14 9 11 15 19 20 14 8 15 23 21 21 23 24 22 27 24 28 23 24 22 23 23 19 19
25 25 26 24 24 25 26 28 28 32 33 35 38 40 34 21 10 2 5 8 7 12 4 12 16 19 21 18 19 14 18 24 23 22 22 22 28 23 24 24 25 28 24 16 19 18 20
25 26 25 23 24 25 26 27 27 31 31 35 39 35 20 16 12 14 11 9 16 12 28 3 17 20 24 19 18 19 17 20 27 24 16 20 21 29 22 28 28 31 27 19 23 18 18
26 26 25 22 24 26 26 27 26 29 30 34 37 22 20 17 14 14 10 16 14 21 17 19 12 20 23 23 20 20 22 22 24 26 24 18 25 20 29 26 27 29 28 27 27 23 20
23 23 23 25 27 26 25 26 25 28 28 32 27 25 24 15 10 14 11 27 22 32 15 14 24 19 21 23 21 21 20 20 23 26 26 20 17 23 25 24 27 34 24 26 22 27 25
24 26 28 26 25 24 25 24 23 24 26 29 18 6 6 6 11 10 17 23 27 34 29 26 22 24 25 23 25 25 24 23 20 24 25 24 18 16 24 31 31 20 27 23 25 23 21
26 26 25 24 24 24 23 23 22 22 24 20 12 7 8 6 10 10 19 26 25 28 23 28 22 25 24 24 20 20 18 23 17 19 26 24 16 15 21 25 27 29 28 32 18 28 20
26 26 25 24 24 23 22 22 19 18 15 18 8 12 23 19 14 15 22 27 28 28 27 27 25 29 24 26 23 21 19 21 8 15 19 20 19 16 21 20 24 30 29 31 33 22 26
25 24 24 23 23 22 22 21 18 14 12 11 6 6 8 10 13 21 22 23 23 21 21 21 23 26 26 30 25 22 25 23 16 14 5 8 20 23 18 22 19 26 31 31 30 23 22
26 26 25 24 24 23 21 20 16 14 9 6 5 9 8 11 10 13 15 20 16 20 20 23 22 28 27 25 27 26 26 20 26 17 13 15 21 23 25 24 19 23 29 30 33 30 28
27 27 27 25 23 23 20 20 15 12 9 6 5 6 7 12 19 19 15 19 18 18 16 24 22 23 24 24 22 23 26 23 20 20 20 20 18 18 20 23 24 24 22 30 29 32 33
28 27 27 25 24 23 21 18 15 11 11 6 9 16 7 8 16 15 13 17 24 18 14 14 22 16 22 9 16 18 19 16 23 17 22 20 16 17 20 21 18 23 27 25 24 27 27
28 27 27 25 23 22 20 18 18 14 14 13 9 7 6 12 10 14 20 11 18 18 16 17 13 10 18 30 23 18 14 11 9 12 16 18 19 15 17 16 21 16 19 26 27 26 26
28 28 27 25 22 21 20 19 19 17 15 20 12 4 3 8 12 14 18 16 14 19 21 20 16 16 17 22 12 7 9 10 17 16 18 16 14 17 16 18 10 16 3 3 11 17 22
29 28 25 24 22 20 20 18 17 15 14 18 18 15 4 3 10 6 11 15 14 13 15 18 10 6 8 9 9 13 13 12 17 22 22 21 16 13 14 23 24 17 11 7 6 14 15
28 26 25 22 20 19 18 16 14 13 11 13 12 14 6 4 9 19 14 7 16 7 10 6 4 5 11 6 11 14 17 20 22 28 16 21 20 22 18 17 16 6 5 4 8 9 15
26 24 21 20 17 16 15 13 14 12 11 11 10 14 13 3 10 20 24 21 17 12 8 7 5 4 3 8 11 14 15 19 21 23 25 22 20 19 18 22 23 7 7 6 8 13 14
23 20 16 17 17 13 14 13 8 8 8 8 9 12 15 7 10 24 28 27 23 21 14 11 8 2 4 4 3 6 5 8 18 15 25 23 20 16 18 14 9 9 11 6 7 8 8
Wind_Direction
10 8 7 7 4 3 1 359 356 354 352 351 348 349 349 345 338 334 330 326 321 318 316 315 313 314 320 247 255 180 198 210 182 196 215 219 220 224 233 240 234 227 277 197 209 156 236
7 4 3 4 2 360 358 357 353 351 350 349 348 349 348 344 339 334 329 324 320 315 310 308 305 306 257 263 260 172 180 175 197 200 214 225 224 226 244 245 245 223 223 262 224 180 196
4 2 1 1 357 358 356 356 353 350 348 346 346 347 346 343 341 334 328 321 318 309 306 302 291 230 262 251 246 209 201 216 209 205 220 217 230 229 234 257 248 260 248 220 222 178 170
0 360 359 359 353 356 353 354 351 350 348 346 345 343 344 342 339 333 325 319 310 306 302 286 234 213 259 264 239 221 221 231 227 224 226 221 220 242 245 231 251 226 240 241 182 179 156
355 355 354 353 351 349 350 348 349 349 351 348 345 342 342 340 337 332 325 321 308 299 297 134 180 226 259 164 217 220 212 222 205 211 213 228 236 225 236 243 243 226 227 228 147 172 157
348 346 348 349 350 349 348 345 346 346 349 348 346 342 343 339 336 330 323 319 292 277 223 231 260 245 246 224 187 171 192 214 187 181 192 206 209 211 222 218 224 219 221 222 179 173 189
345 344 342 344 347 348 346 346 344 344 346 346 347 344 340 338 336 331 331 296 226 195 223 244 244 232 112 181 153 212 181 200 199 190 205 196 205 209 210 223 228 235 221 235 216 161 196
339 340 343 342 343 343 342 343 343 343 344 343 346 346 339 336 336 328 320 293 5 331 291 259 253 254 257 260 238 219 180 203 206 210 211 187 216 215 219 218 227 242 246 235 227 152 193
343 340 338 339 338 339 337 336 338 339 340 339 340 345 341 333 332 294 314 277 328 338 264 273 238 237 239 220 232 229 221 213 212 214 212 220 210 216 216 223 224 233 244 243 230 155 219
338 339 337 338 339 334 334 334 334 336 337 337 336 339 341 338 306 331 289 341 295 326 276 258 190 220 203 204 222 226 217 210 226 221 224 225 223 203 220 221 224 227 232 253 239 178 246
327 324 328 334 339 337 335 335 334 335 335 334 334 332 336 336 294 293 352 308 308 272 277 110 142 142 172 193 121 189 210 197 215 213 217 224 223 217 212 220 220 232 230 234 249 216 194
325 324 320 324 329 332 332 333 334 334 331 330 329 328 330 330 260 265 288 289 270 230 237 189 160 187 183 209 236 136 200 204 218 225 225 237 212 225 222 223 220 231 240 241 236 248 249
323 322 318 314 322 329 325 329 329 331 329 327 327 324 313 279 254 28 289 250 227 233 151 202 192 190 203 193 208 184 198 197 205 212 219 223 231 219 232 216 219 224 227 231 234 229 235
317 319 321 315 316 319 322 322 324 330 327 326 327 324 298 247 262 267 260 225 234 241 228 74 200 199 206 213 202 191 197 208 211 213 220 215 217 227 209 220 220 215 219 223 225 231 232
318 317 318 315 317 318 321 323 322 328 327 328 329 317 290 258 237 223 221 221 229 237 268 233 215 240 208 228 230 210 212 211 211 220 223 217 223 212 220 217 223 219 220 229 237 231 237
321 318 319 318 316 315 319 320 322 326 328 331 317 299 272 242 204 208 227 237 237 252 279 265 239 229 233 211 214 235 218 221 224 214 229 233 248 209 210 216 221 236 218 221 231 240 242
318 315 315 316 314 314 315 318 319 324 326 330 301 290 121 167 195 226 233 238 238 258 270 250 257 244 241 239 233 218 227 238 228 224 212 228 238 231 204 204 217 218 233 225 228 234 243
316 316 314 312 311 314 312 313 315 321 327 322 300 266 125 209 225 234 241 248 261 267 253 247 258 265 259 256 244 256 232 240 200 223 212 214 224 225 234 221 212 228 226 231 231 223 239
315 314 314 314 313 311 309 311 309 316 325 319 286 283 277 242 249 250 257 260 251 256 256 258 250 241 253 260 253 243 236 246 196 236 228 200 227 222 221 240 214 216 229 231 230 235 229
314 314 313 311 310 308 305 302 302 310 308 303 286 284 265 212 246 263 272 273 273 261 263 277 263 265 238 249 245 243 243 246 224 225 28 269 222 226 221 223 225 215 220 236 232 232 231
312 310 308 307 307 304 304 303 299 297 289 287 261 272 330 291 258 354 313 321 280 292 278 257 254 253 255 240 239 240 242 230 232 218 240 234 231 231 227 258 233 230 218 225 236 239 237
310 308 304 300 298 299 297 298 301 292 252 235 273 292 312 288 294 293 272 274 276 261 278 283 287 251 248 256 249 233 232 235 225 202 218 216 232 241 238 232 238 257 236 221 226 241 243
311 307 305 304 298 296 295 291 290 288 241 233 258 280 268 280 278 268 269 252 289 264 265 254 277 337 294 308 330 315 317 267 234 228 203 219 216 224 231 233 242 232 238 247 244 232 233
313 309 306 302 300 298 293 288 285 274 248 237 240 297 267 272 283 284 311 270 271 293 268 266 310 282 285 323 317 282 249 272 284 267 251 232 221 233 236 220 232 244 271 248 244 248 242
312 310 308 303 299 298 293 289 283 272 262 236 233 177 267 262 286 284 283 304 279 267 254 254 266 275 295 304 294 252 232 231 236 236 244 246 223 224 237 232 246 266 270 341 325 282 248
311 312 309 305 297 298 297 295 286 274 265 243 243 218 221 271 257 270 315 279 285 286 271 240 206 251 296 265 270 257 218 218 229 230 224 232 230 247 213 237 236 233 75 5 335 273 259
311 308 311 308 300 297 295 293 285 282 270 244 238 234 233 239 265 266 276 288 282 295 284 284 97 245 207 261 255 230 236 227 230 218 198 214 217 217 227 240 234 98 42 359 235 289 331
314 311 309 311 307 299 293 286 285 282 262 241 258 233 237 241 268 271 277 279 283 276 264 332 238 172 208 236 231 232 235 233 233 228 211 203 202 218 219 232 240 108 204 251 356 320 307
317 317 311 308 308 303 305 297 286 286 270 242 272 270 243 237 268 295 274 268 262 260 278 287 298 346 284 276 354 325 309 288 233 251 205 208 207 206 216 218 84 86 85 66 2 340 332
Height
856 852 849 845 841 837 833 829 825 821 817 812 808 804 800 795 790 786 782 777 773 770 767 765 762 760 758 748 733 727 729 732 735 737 734 729 731 730 738 724 717 723 715 709 709 713 712
856 853 849 845 841 837 833 829 824 820 815 811 806 802 798 793 788 783 779 774 769 765 763 760 759 758 759 748 723 726 728 731 731 733 730 728 724 721 724 722 718 709 710 711 708 708 714
856 853 849 846 841 837 832 827 823 819 815 810 805 801 796 791 785 780 775 770 765 760 757 755 754 757 750 732 722 724 726 725 725 727 724 724 723 722 719 723 706 709 724 715 714 709 718
857 853 850 846 842 838 834 830 824 820 815 810 804 799 794 788 783 777 771 765 760 755 752 752 751 757 739 717 719 719 722 722 722 722 722 719 722 719 718 709 710 721 719 733 707 709 711
858 854 850 846 842 837 833 829 825 820 815 809 803 797 792 786 779 772 765 760 755 751 750 750 753 750 728 714 716 714 716 716 716 717 719 720 720 724 723 733 733 721 739 728 722 704 713
857 853 849 845 841 837 832 828 823 818 813 808 802 795 790 784 777 769 760 755 752 750 752 753 750 747 717 707 704 707 709 711 711 713 719 720 721 729 728 728 750 736 732 713 720 711 712
857 853 849 845 841 836 831 826 821 816 811 806 800 794 787 781 774 767 758 755 750 747 745 720 710 704 697 699 702 706 706 707 707 713 725 716 728 730 723 715 712 707 709 712 700 693 715
855 852 847 843 839 835 831 826 820 815 810 803 798 792 785 778 771 764 761 751 746 751 735 712 705 700 696 697 703 699 701 709 710 721 714 718 725 707 705 707 712 709 709 709 695 692 706
854 850 846 842 838 834 829 825 821 815 809 803 797 792 785 774 767 764 760 755 753 749 734 697 684 687 686 691 696 694 692 697 706 712 708 711 704 698 703 708 714 711 711 704 705 697 707
853 849 845 842 837 832 828 823 818 813 808 802 796 791 786 775 769 763 753 754 754 751 739 691 683 678 679 682 692 680 676 688 698 706 702 701 686 697 704 708 705 720 698 696 697 719 739
850 847 843 839 835 831 826 821 816 811 805 800 794 788 785 782 775 763 757 756 754 750 749 668 674 663 667 680 671 674 670 679 695 694 695 699 695 694 704 699 694 708 689 697 695 702 735
847 843 840 836 833 828 824 819 815 809 803 797 791 785 782 776 772 761 758 757 754 751 734 679 667 678 679 672 670 671 673 670 674 687 685 686 671 682 684 685 687 689 696 695 695 700 725
844 840 837 833 830 826 821 816 811 805 799 793 786 780 776 778 763 758 758 752 750 733 670 674 673 667 671 671 670 676 684 684 691 707 703 690 683 672 672 695 686 694 707 734 736 727 731
840 837 833 830 826 822 817 813 808 802 796 789 781 772 764 763 760 760 759 750 742 686 683 649 656 660 672 657 662 667 677 684 673 675 681 698 707 679 669 680 694 693 696 718 750 733 718
837 833 829 826 823 820 815 812 807 801 795 787 776 766 757 752 754 757 751 734 703 692 663 664 659 668 666 657 658 662 667 670 663 665 683 680 688 659 663 669 679 685 695 677 701 689 704
832 829 826 823 819 816 813 809 805 800 794 787 779 764 746 745 750 751 741 713 688 675 662 662 673 658 668 659 662 663 658 648 653 647 649 661 683 657 658 664 667 673 664 699 684 722 723
829 826 822 818 815 813 809 806 802 798 793 786 775 752 737 744 747 740 719 702 696 680 670 676 668 663 653 653 647 650 655 644 636 640 641 654 663 667 656 663 674 678 676 669 676 684 707
825 821 818 814 811 808 805 802 800 797 793 783 773 751 735 741 737 719 708 702 695 678 666 671 667 660 659 649 652 647 647 637 620 630 646 643 657 674 660 644 646 656 667 668 682 698 680
822 818 814 810 807 804 802 800 798 796 795 789 768 747 737 734 729 714 702 693 684 681 674 671 668 664 658 660 662 648 640 622 624 634 635 638 659 676 673 655 643 656 654 649 654 659 676
818 814 810 807 803 801 798 796 795 794 793 792 775 740 719 719 716 712 705 694 688 673 676 675 671 662 662 663 648 654 646 629 623 636 644 634 642 656 660 659 643 661 656 650 651 663 668
813 809 806 803 799 797 795 792 791 791 791 793 775 747 733 723 709 727 724 719 706 705 685 681 678 669 661 662 660 654 643 633 628 633 641 637 654 641 640 633 633 638 646 647 654 648 660
807 803 800 797 795 792 791 788 788 787 787 789 776 759 750 741 731 729 729 722 710 708 705 702 684 670 662 661 654 653 642 637 634 629 637 631 650 642 647 633 637 642 632 636 641 643 642
802 798 794 791 789 787 785 784 784 784 783 781 777 769 761 745 734 722 714 717 711 699 703 706 698 698 679 664 664 655 643 625 624 631 637 637 641 652 659 638 638 656 636 631 629 626 635
797 793 788 785 783 780 779 778 779 779 778 777 774 775 764 739 733 726 724 711 718 706 711 698 700 709 693 682 666 653 645 638 636 632 626 638 642 645 654 644 676 626 615 614 624 621 619
791 787 783 780 777 775 773 773 772 772 772 771 771 773 769 751 737 728 721 716 712 709 705 706 704 703 703 691 676 663 656 656 650 646 641 631 640 654 656 651 655 637 632 628 638 629 606
785 781 778 774 772 770 769 767 766 766 766 766 765 766 766 761 740 736 738 730 718 706 695 689 693 702 706 697 686 674 664 655 662 654 638 638 640 648 643 656 653 621 625 619 620 646 608
779 776 772 769 767 765 764 763 762 761 760 760 759 761 762 757 745 740 730 733 722 725 708 704 695 700 701 697 684 672 662 643 654 651 646 644 644 650 649 645 629 622 619 619 657 649 625
774 770 768 765 762 761 760 759 758 756 756 757 754 755 757 748 741 736 729 723 719 708 711 712 688 698 698 699 686 665 655 636 635 621 625 634 639 638 640 649 652 619 623 642 639 629 623
768 765 764 762 759 758 756 755 754 753 753 754 752 750 750 749 735 729 724 720 715 710 704 700 703 711 696 696 690 687 670 646 627 632 600 617 608 624 624 627 626 622 625 628 626 629 623